Regional Weather Roundup
Issued by NWS Little Rock, AR

Home | Current Version | Previous Version | Graphics & Text | Print | Product List | Glossary On
Versions: 1 2 3 4 5 6 7 8 9 10 11 12 13 14 15 16 17 18 19 20 21 22 23 24 25 26 27 28 29 30 31 32 33 34 35 36 37 38 39 40 41 42 43 44 45 46 47 48 49 50
733
ASUS44 KLZK 262005
RWRLZK

WEATHER ROUNDUP FOR ARKANSAS
NATIONAL WEATHER SERVICE LITTLE ROCK AR
300 PM CDT MON SEP 26 2016

NOTE: "FAIR" INDICATES FEW OR NO CLOUDS BELOW 12,000 FEET WITH NO
SIGNIFICANT WEATHER AND/OR OBSTRUCTIONS TO VISIBILITY.

ARZ001-003-010-029-262100-
NORTHWEST ARKANSAS

CITY           SKY/WX    TMP DP  RH WIND       PRES   REMARKS
FAYETTEVILLE   MOSUNNY   72  48  42 NE7       30.18F
FORT SMITH     SUNNY     77  51  40 VRB7      30.14F
HARRISON       SUNNY     74  43  32 NW8       30.18F
BENTONVILLE    SUNNY     72  43  35 N8G16     30.20F
ROGERS         SUNNY     71  44  37 N9        30.21F
SILOAM SPGS    CLOUDY    73  39  29 N12       30.20F
HIGHFILL       MOSUNNY   74  45  35 N10       30.20F
SPRINGDALE     MOSUNNY   72  43  35 N9        30.21F
$$

ARZ004-005-016-262100-
NORTH CENTRAL ARKANSAS

CITY           SKY/WX    TMP DP  RH WIND       PRES   REMARKS
BATESVILLE     CLOUDY    72  54  53 NW7       30.14F
FLIPPIN        SUNNY     75  43  31 NW9G18    30.14F
MTN HOME       SUNNY     75  45  34 VRB6      30.15F
$$

ARZ040-041-262100-
WEST CENTRAL ARKANSAS

CITY           SKY/WX    TMP DP  RH WIND       PRES   REMARKS
MENA           CLOUDY   N/A N/A N/A NE7       30.16F
MOUNT IDA      CLOUDY    70  53  54 VRB5      30.13F
$$

ARZ009-017-025-026-028-262100-
NORTHEAST ARKANSAS

CITY           SKY/WX    TMP DP  RH WIND       PRES   REMARKS
CORNING          N/A     73  55  53 N8        30.13F
JONESBORO      CLOUDY    72  51  47 N8        30.11F
NEWPORT        HAZE      71  52  50 N10       30.12F VSB 1
WALNUT RIDGE   CLOUDY    73  54  49 N5        30.13F
BLYTHEVILLE    CLOUDY    71  53  52 NE8       30.12F
NW BLYTHEVILLE CLOUDY    70  52  52 NE13G21   30.11F
$$

ARZ022-023-033-042-044-262100-
CENTRAL ARKANSAS

CITY           SKY/WX    TMP DP  RH WIND       PRES   REMARKS
LITTLE ROCK    CLOUDY    73  51  46 N10       30.14F
N LITTLE ROCK    N/A     69  53  56 N8G16     30.11F
JACKSONVILLE   CLOUDY    72  53  51 N14       30.13F
SEARCY         CLOUDY    71  53  52 N10       30.15F
HOT SPRINGS    CLOUDY    71  53  52 NE8       30.14F
RUSSELLVILLE   CLOUDY    73  48  41 E6        30.14F
$$

ARZ036-262100-
EAST ARKANSAS

CITY           SKY/WX    TMP DP  RH WIND       PRES   REMARKS
WEST MEMPHIS   CLOUDY    73  52  47 N14       30.09S
$$

ARZ050-053-066-070-073-262100-
SOUTHWEST ARKANSAS

CITY           SKY/WX    TMP DP  RH WIND       PRES   REMARKS
ARKADELPHIA    FAIR      73  57  57 N8        30.12F
TEXARKANA      PTSUNNY   76  60  57 E10       30.10F
EL DORADO      CLOUDY    79  62  56 N10       30.08F
DE QUEEN       CLOUDY    71  56  58 NE7       30.11F
$$

ARZ056-057-069-262100-
SOUTHEAST ARKANSAS

CITY           SKY/WX    TMP DP  RH WIND       PRES   REMARKS
PINE BLUFF     CLOUDY    75  56  51 N9        30.10F
STUTTGART      CLOUDY    73  54  49 N13       30.11F
MONTICELLO     CLOUDY    80  61  52 VRB6      30.08F

$$






USA.gov is the U.S. government's official web portal to all federal, state and local government web resources and services.